Home   Weather   Angels Camp   Past weeks

Flag for USA Past Weather in Angels Camp, California, USA — Yesterday and Last 2 Weeks

Now
53 °F

Clear.


Feels Like: 53 °F
Forecast: 29 / 58 °F
Wind: 3 mph from Southwest

Location: Modesto City-County-Sham Field

Current Time: Dec 2, 2016 at 6:24:17 pm

Latest Report: Dec 2, 2016 at 5:53 pm


Visibility: 10 mi

Pressure: 30.17 "Hg

Humidity: 43%

Dew Point: 31 °F

Location of Angels CampLocation

Past Weather in Angels Camp — Graph

°F

Angels Camp Temperature Yesterday

Maximum temperature yesterday: 59 °F (at 2:53 pm)
Minimum temperature yesterday: 44 °F (at 6:53 am)
Average temperature yesterday: 50 °F

High & Low Weather Summary for the Past Weeks

 TemperatureHumidityPressure
High74 °F (Nov 19, 12:53 pm)93% (Nov 22, 3:53 am)30.36 "Hg (Nov 22, 3:53 am)
Low38 °F (Nov 18, 5:53 am)24% (Nov 19, 12:53 pm)29.85 "Hg (Nov 26, 6:53 am)
Average52 °F71%30.07 "Hg
* Reported Nov 17 4:53 pm — Dec 2 4:53 pm, Angels Camp, Weather by CustomWeather, © 2016

Note: Actual official high and low records may vary slightly from our data, if they occured in-between our weather recording intervals... More about our weather records

Advertising

Angels Camp Weather History for the Previous 24 Hours

Scroll right to see more
 ConditionsComfort  
Time TempWeatherWind HumidityBarometerVisibility
4:53 pm
Fri, Dec 2
56 °FClear.8 mph37%30.17 "Hg10 mi
3:53 pm60 °FSunny.13 mph27%30.16 "Hg10 mi
2:53 pm62 °FSunny.14 mph26%30.16 "Hg10 mi
1:53 pm62 °FSunny.17 mph25%30.16 "Hg10 mi
12:53 pm60 °FSunny.17 mph30%30.16 "Hg10 mi
11:53 am58 °FSunny.15 mph31%30.18 "Hg10 mi
10:53 am56 °FSunny.16 mph36%30.20 "Hg10 mi
9:53 am52 °FSunny.15 mph45%30.21 "Hg10 mi
8:53 am48 °FSunny.12 mph54%30.19 "Hg10 mi
7:53 am44 °FSunny.9 mph60%30.18 "Hg10 mi
6:53 am42 °FClear.7 mph62%30.17 "Hg10 mi
5:53 am42 °FClear.9 mph62%30.15 "Hg10 mi
4:53 am42 °FClear.8 mph62%30.13 "Hg10 mi
3:53 am44 °FClear.8 mph60%30.11 "Hg10 mi
2:53 am44 °FClear.12 mph63%30.11 "Hg10 mi
1:53 am46 °FClear.13 mph61%30.11 "Hg10 mi
12:53 am47 °FClear.12 mph59%30.11 "Hg10 mi
11:53 pm
Thu, Dec 1
48 °FClear.15 mph56%30.11 "Hg10 mi
10:53 pm47 °FClear.12 mph61%30.12 "Hg10 mi
9:53 pm48 °FClear.13 mph56%30.10 "Hg10 mi
8:53 pm44 °FClear.No wind73%30.09 "Hg10 mi
7:53 pm45 °FClear.No wind80%30.09 "Hg10 mi
6:53 pm47 °FClear.3 mph80%30.10 "Hg9 mi
Weather by CustomWeather, © 2016

See weather overviewHow to use our weather pages